Weather History for Washington, NC

Change the Weather History Date:

Thursday, January 17, 2013

  Actual Average (KEWN) Record (KEWN)
Temperature  
Mean Temperature 46 °F 44 °F  
Max Temperature 52 °F 54 °F 78 °F (1949)
Min Temperature 40 °F 34 °F 10 °F (1977)
Degree Days  
Heating Degree Days 18 21  
Month to date heating degree days 357  
Since 1 July heating degree days 1351  
Cooling Degree Days 0 0  
Month to date cooling degree days 0  
Year to date cooling degree days 0  
Moisture  
Dew Point 44 °F    
Average Humidity 82    
Maximum Humidity 82    
Minimum Humidity 81    
Precipitation  
Precipitation 0.44 in 0.14 in 1.21 in (2011)
Month to date precipitation 2.26  
Year to date precipitation 2.26  
Snow  
Snow 0.00 in - - ()
Month to date snowfall  
Since 1 July snowfall  
Snow Depth -    
Sea Level Pressure  
Sea Level Pressure 29.98 in    
Wind  
Wind Speed 6 mph (NE)    
Max Wind Speed 22 mph    
Max Gust Speed 30 mph    
Visibility 3 miles    
Events      
T = Trace of Precipitation, MM = Missing Value Source: NWS Daily Summary

Daily Weather History Graph

Daily Weather History Graph

Search for Another Location

Airport:

Trip Planner

Search our weather history database for the weather conditions in past years. The results will help you decide how hot, cold, wet, or windy it might be!

Date:

Astronomy

Jan. 17, 2013 Rise Set
Actual Time 7:16 AM EST 5:20 PM EST
Civil Twilight 6:48 AM EST 5:48 PM EST
Nautical Twilight 6:17 AM EST 6:19 PM EST
Astronomical Twilight 5:46 AM EST 6:50 PM EST
Moon 10:37 AM EST (1/17) 11:53 PM EST (1/17)
Length of Visible Light 10h 59m
Length of Day
10h 04m
Waxing Crescent, 37% of the Moon is Illuminated
Jan 17
Waxing Crescent
Jan 18
First Quarter
Jan 26
Full
Feb 3
Last Quarter
Feb 10
New

Hourly Weather History & Observations

Time (EST) Temp. Windchill Dew Point Humidity Pressure Visibility Wind Dir Wind Speed Gust Speed Precip Events Conditions
12:15 AM 52.9 °F - 47.3 °F 81% 29.98 in 7.0 mi SSE 3.5 mph - N/A   Clear
12:35 AM 53.6 °F - 47.8 °F 81% 29.98 in 5.0 mi Calm Calm - N/A   Clear
12:55 AM 52.7 °F - 47.3 °F 82% 29.98 in 4.0 mi Calm Calm - N/A   Clear
1:15 AM 52.7 °F - 47.3 °F 82% 29.99 in 5.0 mi Calm Calm - N/A   Clear
1:35 AM 52.7 °F - 47.3 °F 82% 29.99 in 2.5 mi Calm Calm - N/A   Clear
1:55 AM 52.7 °F - 47.3 °F 82% 30.00 in 0.5 mi Calm Calm - N/A   Mostly Cloudy
2:15 AM 51.6 °F - 46.2 °F 82% 30.00 in 0.5 mi Calm Calm - N/A   Overcast
2:35 AM 52.7 °F - 47.3 °F 82% 29.99 in 0.8 mi Calm Calm - N/A   Overcast
2:55 AM 52.7 °F - 47.3 °F 82% 29.99 in 4.0 mi Calm Calm - N/A   Overcast
3:15 AM 52.7 °F - 47.3 °F 82% 29.98 in 4.0 mi East 3.5 mph - N/A   Overcast
3:35 AM 52.7 °F - 47.3 °F 82% 29.98 in 4.0 mi North 4.6 mph - N/A   Overcast
3:55 AM 52.7 °F - 47.3 °F 82% 29.98 in 3.0 mi Calm Calm - N/A   Overcast
4:35 AM 52.7 °F - 47.3 °F 82% 29.97 in 3.0 mi East 3.5 mph - N/A   Overcast
4:55 AM 52.7 °F - 47.3 °F 82% 29.97 in 0.5 mi NNE 4.6 mph - N/A   Overcast
5:15 AM 52.7 °F - 47.3 °F 82% 29.98 in 0.5 mi NNE 4.6 mph - N/A   Overcast
5:35 AM 52.7 °F - 47.3 °F 82% 29.98 in 0.5 mi ENE 5.8 mph - N/A   Overcast
5:55 AM 52.7 °F - 47.3 °F 82% 29.98 in 1.0 mi NE 5.8 mph - N/A   Overcast
6:15 AM 52.7 °F - 47.3 °F 82% 29.98 in 0.8 mi NE 4.6 mph - N/A   Overcast
6:35 AM 52.7 °F - 47.3 °F 82% 29.98 in 0.8 mi NE 4.6 mph - N/A   Overcast
7:15 AM 52.7 °F - 47.3 °F 82% 29.99 in 0.5 mi ENE 4.6 mph - N/A   Overcast
7:35 AM 52.7 °F - 47.3 °F 82% 30.00 in 0.5 mi NE 3.5 mph - N/A   Overcast
7:55 AM 52.7 °F - 47.3 °F 82% 30.01 in 0.2 mi North 5.8 mph - N/A   Overcast
8:15 AM 52.7 °F - 47.3 °F 82% 30.02 in 0.2 mi NNE 5.8 mph - N/A   Overcast
8:35 AM 52.7 °F - 47.3 °F 82% 30.02 in 0.5 mi NNE 6.9 mph - N/A   Overcast
8:55 AM 52.7 °F - 47.3 °F 82% 30.02 in 0.5 mi NE 8.1 mph - N/A   Overcast
9:15 AM 52.7 °F - 47.3 °F 82% 30.02 in 1.0 mi NNE 6.9 mph - N/A   Overcast
9:35 AM 52.7 °F - 47.3 °F 82% 30.03 in 1.5 mi NNE 6.9 mph - N/A   Overcast
9:55 AM 52.7 °F - 47.3 °F 82% 30.03 in 1.8 mi NE 9.2 mph - N/A   Overcast
10:15 AM 52.7 °F - 47.3 °F 82% 30.03 in 2.0 mi NNE 8.1 mph - N/A   Overcast
10:35 AM 52.7 °F - 47.3 °F 82% 30.03 in 2.0 mi NE 9.2 mph - N/A   Overcast
10:55 AM 52.7 °F - 47.3 °F 82% 30.02 in 2.5 mi NNE 6.9 mph - N/A   Overcast
11:15 AM 52.7 °F - 47.3 °F 82% 30.02 in 2.5 mi NE 5.8 mph - N/A   Overcast
11:35 AM 52.7 °F - 47.3 °F 82% 30.01 in 2.0 mi NNE 8.1 mph - N/A   Overcast
11:55 AM 52.7 °F - 47.3 °F 82% 30.01 in 2.0 mi NE 8.1 mph - N/A   Overcast
12:15 PM 52.7 °F - 47.3 °F 82% 29.99 in 1.8 mi NE 9.2 mph - N/A   Overcast
12:35 PM 52.7 °F - 47.3 °F 82% 29.99 in 2.5 mi NNE 10.4 mph - N/A   Overcast
12:55 PM 52.7 °F - 47.3 °F 82% 29.98 in 3.0 mi NE 10.4 mph - N/A   Overcast
1:15 PM 51.8 °F - 46.4 °F 82% 29.98 in 4.0 mi NE 12.7 mph 16.1 mph N/A   Overcast
1:35 PM 50.7 °F - 45.3 °F 82% 29.98 in 1.8 mi NE 9.2 mph - N/A   Overcast
1:55 PM 50.2 °F - 44.8 °F 82% 29.96 in 3.0 mi ENE 11.5 mph - N/A   Overcast
2:15 PM 50.2 °F - 44.8 °F 82% 29.95 in 2.5 mi ENE 13.8 mph 24.2 mph N/A   Overcast
2:35 PM 49.8 °F - 44.4 °F 82% 29.95 in 5.0 mi ENE 13.8 mph 20.7 mph N/A   Overcast
2:55 PM 47.8 °F - 42.4 °F 82% 29.95 in 5.0 mi ENE 19.6 mph 26.5 mph N/A   Overcast
3:15 PM 47.7 °F - 42.3 °F 82% 29.95 in 4.0 mi ENE 12.7 mph 21.9 mph N/A   Overcast
3:35 PM 45.9 °F 38.3 °F 40.5 °F 81% 29.96 in 4.0 mi NE 19.6 mph 26.5 mph N/A   Overcast
3:55 PM 45.1 °F 38.1 °F 39.7 °F 81% 29.96 in 2.5 mi NE 16.1 mph 23.0 mph N/A   Overcast
4:15 PM 45.1 °F 39.1 °F 39.7 °F 81% 29.96 in 1.8 mi ENE 12.7 mph 19.6 mph N/A   Overcast
4:35 PM 43.9 °F 36.8 °F 38.7 °F 82% 29.96 in 4.0 mi NE 15.0 mph 28.8 mph N/A   Overcast
4:55 PM 43.9 °F 38.3 °F 38.7 °F 82% 29.95 in 3.0 mi NE 10.4 mph 20.7 mph N/A   Overcast
5:55 PM 42.8 °F 36.2 °F 37.4 °F 81% 29.95 in 5.0 mi NE 12.7 mph 19.6 mph N/A   Overcast
6:35 PM 42.8 °F 36.2 °F 37.4 °F 81% 29.94 in 7.0 mi NE 12.7 mph 16.1 mph N/A   Overcast
7:15 PM 42.8 °F 36.2 °F 37.4 °F 81% 29.90 in 7.0 mi NE 12.7 mph 23.0 mph 0.01 in   Overcast
7:55 PM 42.8 °F 38.0 °F 37.4 °F 81% 29.96 in 4.0 mi NNW 8.1 mph - 0.14 in   Overcast
8:55 PM 42.8 °F 34.8 °F 37.4 °F 81% 29.92 in 5.0 mi NNE 17.3 mph 29.9 mph 0.08 in   Overcast
9:15 PM 41.0 °F 31.4 °F 35.8 °F 82% 29.90 in 7.0 mi NNE 21.9 mph 28.8 mph 0.03 in   Overcast
9:35 PM 40.5 °F 32.8 °F 35.2 °F 82% 29.90 in 10.0 mi North 13.8 mph 28.8 mph 0.05 in   Overcast
9:55 PM 40.3 °F 31.9 °F 35.1 °F 82% 29.93 in 3.0 mi North 16.1 mph 26.5 mph 0.09 in   Overcast
10:15 PM 40.3 °F 35.5 °F 35.1 °F 82% 29.98 in 7.0 mi NW 6.9 mph 18.4 mph 0.04 in   Overcast
10:35 PM 40.1 °F 32.0 °F 34.9 °F 82% 29.99 in 5.0 mi North 15.0 mph 19.6 mph 0.09 in   Overcast
10:55 PM 40.1 °F 31.6 °F 34.9 °F 82% 29.97 in 5.0 mi North 16.1 mph 20.7 mph 0.13 in   Overcast